Weather in Yurlovka

Russia / Tambov Oblast     52°42′38″N   40°41′07″E
temp.,
°C
wind,
m/s
gust,
m/s
humid.,
%
clouds,
%
prec.,
mm/h
press.,
hPa
HPBL,
m
24 september, fri
fri2400:00+7ssw348224 0.0 101281
03:00+6ssw34866 0.0 101169
06:00+6s359194 0.0 101188
09:00+9s597798 0.0 1011655
12:00+10s5775100 0.1 1010725
15:00+14s5756100 0.1 10081479
18:00+11s476593 0.2 1008162
21:00+10sse3665100 0.2 1008167
25 september, sat
sat2500:00+10se3768100 0.0 1007175
03:00+10sse2272100 0.0 100754
06:00+8s228095 0.0 100812
09:00+11ssw2261100 0.0 1008357
12:00+13wsw225019 0.0 10091031
15:00+15wsw3347100 0.0 10091666
18:00+12w3461100 0.0 1010266
21:00+11sw2469100 0.0 1011189
26 september, sun
sun2600:00+10sw357789 0.0 1010275
03:00+9s3683100 0.0 1010194
06:00+9ssw3785100 0.2 1008256
09:00+9s4887100 0.8 1007453
12:00+9s4796100 4.5 1006469
15:00+10nw3588100 5.4 1006369
18:00+10nw5891100 3.4 1006560
21:00+9nne4794100 4.0 1007530
27 september, mon
mon2700:00+9nne51091100 0.3 1010587
03:00+9n5109299 0.6 1012421
06:00+9n6119497 0.4 1014531
09:00+10n61178100 0.4 1016674
12:00+12n6865100 0.0 10171228
15:00+12n6869100 0.3 10191048
18:00+10n5981100 0.2 1020623
21:00+9n5885100 0.2 1021554
28 september, tue
tue2800:00+9n4789100 0.0 1022435
03:00+8n4790100 0.0 1023415
06:00+8nne4791100 0.1 1024475
09:00+9nne4790100 0.1 1026516
12:00+11ne347283 0.0 1027755
15:00+12nne566199 0.0 10271256
18:00+11n4765100 0.0 1028590
21:00+9nne4871100 0.0 1028441